^^
Station Historical Data
 
Daily Summary for January 17, 2019 Units:  English    Metric   Both
« Previous Day
Next Day »
Daily Weekly Monthly Yearly Custom
  Current: High: Low: Average:
Temperature: 32.2 °F TemperatureF °F 32.2 °F 32 °F
Dew Point: 31.7 °F DewpointF °F 31.7 °F 31.5 °F
Humidity: 98% Humidity% 98% 97%
Wind Speed: 3.5mph WindSpeedMPHmph 0.0mph 3mph
Wind Gust: 1.1mph WindSpeedGustMPHmph - -
WindWest - - SSE
Pressure: 30.09 in PressureIn in 30.04 in -
Precipitation: 0.00 in      
Historical Graphs
 
 
Tabular Data for January 17, 2019
Time Temperature Dew Point Pressure Wind Wind Speed Wind Gust Humidity Rainfall Rate (Hourly)
TemperatureF °F DewpointF °F PressureIn in Calm     Humidity% HourlyPrecipIn in
00:04 32.4 °F 31.9 °F 30.07 in NE 3.5 mph 2.3 mph 98% 0.00 in
00:09 32.4 °F 31.9 °F 30.07 in North 3.5 mph 2.8 mph 98% 0.00 in
00:14 32.4 °F 31.9 °F 30.07 in NNE 4.6 mph 3.5 mph 98% 0.00 in
00:19 32.4 °F 31.9 °F 30.07 in NNE 1.2 mph 1.9 mph 98% 0.00 in
00:24 32.4 °F 31.9 °F 30.07 in North 5.0 mph 3.3 mph 98% 0.00 in
00:29 32.3 °F 31.8 °F 30.07 in NNE 2.3 mph 1.5 mph 98% 0.00 in
00:34 32.3 °F 31.8 °F 30.06 in NNE 3.0 mph 2.2 mph 98% 0.00 in
00:39 32.3 °F 31.8 °F 30.06 in NNE 2.3 mph 1.3 mph 98% 0.00 in
00:44 32.3 °F 31.8 °F 30.06 in NE 2.3 mph 1.2 mph 98% 0.00 in
00:49 32.3 °F 31.8 °F 30.06 in ENE 1.2 mph   98% 0.00 in
00:54 32.3 °F 31.8 °F 30.05 in NE 3.5 mph 2.1 mph 98% 0.00 in
00:59 32.3 °F 31.8 °F 30.05 in ENE 2.3 mph 1.1 mph 98% 0.00 in
01:04 32.3 °F 31.8 °F 30.05 in NE 2.3 mph 1.1 mph 98% 0.00 in
01:09 32.2 °F 31.7 °F 30.05 in NNE 2.3 mph 1.8 mph 98% 0.00 in
01:14 32.2 °F 31.7 °F 30.05 in North 4.0 mph 2.3 mph 98% 0.00 in
01:19 32.3 °F 31.8 °F 30.05 in NNE 3.0 mph 2.6 mph 98% 0.00 in
01:24 32.3 °F 31.8 °F 30.05 in NNE 3.5 mph 2.1 mph 98% 0.00 in
01:29 32.2 °F 31.7 °F 30.05 in NNE 2.3 mph 1.2 mph 98% 0.00 in
01:34 32.3 °F 31.8 °F 30.05 in North 3.0 mph 1.6 mph 98% 0.00 in
01:39 32.3 °F 31.8 °F 30.05 in North 2.3 mph 1.5 mph 98% 0.00 in
01:44 32.3 °F 31.8 °F 30.05 in NE 4.6 mph 2.8 mph 98% 0.00 in
01:49 32.2 °F 31.7 °F 30.05 in NNE 2.3 mph 2.2 mph 98% 0.00 in
01:54 32.2 °F 31.7 °F 30.05 in North 3.5 mph 2.2 mph 98% 0.00 in
01:58 32.2 °F 31.7 °F 30.05 in NE 2.3 mph 1.0 mph 98% 0.00 in
02:04 32.3 °F 31.8 °F 30.05 in NNE 2.3 mph 0.6 mph 98% 0.00 in
02:09 32.3 °F 31.8 °F 30.05 in NNE 3.5 mph 2.3 mph 98% 0.00 in
02:14 32.3 °F 31.8 °F 30.05 in North 3.5 mph 1.7 mph 98% 0.00 in
02:19 32.3 °F 31.8 °F 30.05 in North 3.5 mph 3.1 mph 98% 0.00 in
02:24 32.3 °F 31.8 °F 30.05 in NNE 5.0 mph 2.9 mph 98% 0.00 in
02:29 32.3 °F 31.8 °F 30.05 in North 3.5 mph 4.3 mph 98% 0.00 in
02:34 32.2 °F 31.7 °F 30.05 in North 3.5 mph 1.7 mph 98% 0.00 in
02:39 32.2 °F 31.7 °F 30.05 in North 6.9 mph 2.1 mph 98% 0.00 in
02:44 32.2 °F 31.7 °F 30.05 in NE 3.5 mph 2.9 mph 98% 0.00 in
02:49 32.2 °F 31.7 °F 30.05 in North 4.6 mph 2.4 mph 98% 0.00 in
02:54 32.3 °F 31.8 °F 30.05 in NNE 3.5 mph 2.1 mph 98% 0.00 in
02:59 32.2 °F 31.7 °F 30.05 in NNE 3.5 mph 2.7 mph 98% 0.00 in
03:04 32.3 °F 31.8 °F 30.05 in North 4.6 mph 3.9 mph 98% 0.00 in
03:09 32.3 °F 31.8 °F 30.05 in North 4.6 mph 3.5 mph 98% 0.00 in
03:14 32.3 °F 31.8 °F 30.05 in North 4.6 mph 3.5 mph 98% 0.00 in
03:19 32.3 °F 31.8 °F 30.05 in NE 5.0 mph 2.6 mph 98% 0.00 in
03:24 32.3 °F 31.8 °F 30.05 in North 3.5 mph 3.3 mph 98% 0.00 in
03:29 32.3 °F 31.8 °F 30.05 in NNE 3.5 mph 1.5 mph 98% 0.00 in
03:34 32.3 °F 31.8 °F 30.04 in NE 3.5 mph 3.2 mph 98% 0.00 in
03:39 32.3 °F 31.8 °F 30.04 in ENE 6.9 mph 4.0 mph 98% 0.00 in
03:44 32.3 °F 31.8 °F 30.04 in NE 3.5 mph 2.7 mph 98% 0.00 in
03:49 32.3 °F 31.8 °F 30.04 in NNE 3.5 mph 2.3 mph 98% 0.00 in
03:54 32.3 °F 31.8 °F 30.04 in NNE 6.9 mph 3.8 mph 98% 0.00 in
03:59 32.3 °F 31.8 °F 30.04 in North 3.5 mph 2.2 mph 98% 0.00 in
04:04 32.3 °F 31.8 °F 30.05 in NNE 3.5 mph 2.3 mph 98% 0.00 in
04:09 32.3 °F 31.8 °F 30.05 in NNE 3.5 mph 1.5 mph 98% 0.00 in
04:14 32.3 °F 31.8 °F 30.04 in North 3.5 mph 1.7 mph 98% 0.00 in
04:19 32.3 °F 31.8 °F 30.05 in NNE 3.5 mph 2.0 mph 98% 0.00 in
04:24 32.3 °F 31.8 °F 30.05 in NNE 3.5 mph 2.1 mph 98% 0.00 in
04:29 32.3 °F 31.8 °F 30.04 in Calm   1.6 mph 98% 0.00 in
04:34 32.3 °F 31.8 °F 30.05 in North 2.3 mph 1.3 mph 98% 0.00 in
04:39 32.3 °F 31.8 °F 30.05 in NNE 2.0 mph 1.2 mph 98% 0.00 in
04:44 32.3 °F 31.8 °F 30.05 in NNE 2.3 mph 1.3 mph 98% 0.00 in
04:49 32.3 °F 31.8 °F 30.05 in NE 3.5 mph 1.8 mph 98% 0.00 in
04:54 32.3 °F 31.8 °F 30.05 in NNE 4.0 mph 3.6 mph 98% 0.00 in
04:59 32.3 °F 31.8 °F 30.06 in NNW 5.0 mph 2.0 mph 98% 0.00 in
05:04 32.3 °F 31.8 °F 30.06 in NNW 3.5 mph 1.1 mph 98% 0.00 in
05:09 32.3 °F 31.8 °F 30.06 in North 3.5 mph 2.1 mph 98% 0.00 in
05:14 32.3 °F 31.8 °F 30.06 in NNW 3.5 mph 1.1 mph 98% 0.00 in
05:19 32.3 °F 31.8 °F 30.06 in Calm   0.6 mph 98% 0.00 in
05:24 32.3 °F 31.8 °F 30.06 in NNW 2.3 mph 1.4 mph 98% 0.00 in
05:29 32.3 °F 31.8 °F 30.06 in NNW 2.3 mph 0.6 mph 98% 0.00 in
05:34 32.3 °F 31.8 °F 30.06 in North 3.5 mph 1.8 mph 98% 0.00 in
05:39 32.3 °F 31.8 °F 30.05 in NNW 2.3 mph 1.0 mph 98% 0.00 in
05:44 32.3 °F 31.8 °F 30.06 in NNE 4.0 mph 0.9 mph 98% 0.00 in
05:49 32.3 °F 31.8 °F 30.06 in North 3.5 mph 1.4 mph 98% 0.00 in
05:54 32.3 °F 31.8 °F 30.05 in North 2.3 mph 0.3 mph 98% 0.00 in
05:59 32.3 °F 31.8 °F 30.05 in North 2.3 mph 1.6 mph 98% 0.00 in
06:04 32.3 °F 31.8 °F 30.06 in North 3.5 mph 1.8 mph 98% 0.00 in
06:09 32.3 °F 31.8 °F 30.06 in North 1.2 mph 0.1 mph 98% 0.00 in
06:14 32.3 °F 31.8 °F 30.05 in Calm     98% 0.00 in
06:18 32.3 °F 31.8 °F 30.05 in North 1.0 mph   98% 0.00 in
06:24 32.3 °F 31.8 °F 30.06 in Calm     98% 0.00 in
06:29 32.4 °F 31.9 °F 30.06 in North 2.3 mph 0.6 mph 98% 0.00 in
06:34 32.4 °F 31.9 °F 30.06 in North 1.2 mph 1.0 mph 98% 0.00 in
06:39 32.4 °F 31.9 °F 30.07 in NNW 3.5 mph 1.1 mph 98% 0.00 in
06:44 32.4 °F 31.9 °F 30.07 in WSW 2.3 mph 1.1 mph 98% 0.00 in
06:49 32.4 °F 31.9 °F 30.07 in Calm     98% 0.00 in
06:54 32.4 °F 31.9 °F 30.07 in NNW 2.3 mph 1.2 mph 98% 0.00 in
06:59 32.4 °F 31.9 °F 30.07 in NNW 3.5 mph 1.7 mph 98% 0.00 in
07:04 32.3 °F 31.8 °F 30.07 in North 2.3 mph 1.9 mph 98% 0.00 in
07:09 32.3 °F 31.8 °F 30.07 in North 1.2 mph 0.1 mph 98% 0.00 in
07:14 32.3 °F 31.8 °F 30.07 in NNE 3.5 mph 2.8 mph 98% 0.00 in
07:19 32.3 °F 31.8 °F 30.08 in NW 2.3 mph 1.1 mph 98% 0.00 in
07:24 32.3 °F 31.8 °F 30.08 in NNW 3.5 mph 2.0 mph 98% 0.00 in
07:29 32.2 °F 31.7 °F 30.08 in NNW 3.5 mph 2.0 mph 98% 0.00 in
07:34 32.2 °F 31.7 °F 30.09 in NW 3.5 mph 1.7 mph 98% 0.00 in
07:39 32.2 °F 31.7 °F 30.09 in WSW 2.3 mph 0.7 mph 98% 0.00 in
07:44 32.2 °F 31.7 °F 30.09 in West 3.5 mph 1.1 mph 98% 0.00 in
Live Lenexa Weather
Compliments of Weather Underground - 1.25 mb